SR9NCI Weather Reports


Display with metric or nautical units.
time (UTC)temp
F
wind
direction
speed
MPH
gust
MPH
rain 1hr
in
rain 24hr
in
rain mn
in
humidity
%
barometer
mb
20260901080608 71 258 6.0 9.0 0.00 0.00 0.00
20260901080206 71 249 6.0 10.0 0.00 0.00 0.00
20260901075758 71 234 8.0 11.0 0.00 0.00 0.00
20260901075545 70 250 7.0 9.0 0.00 0.00 0.00
20260901075355 70 249 8.0 11.0 0.00 0.00 0.00
20260901074954 70 250 7.0 9.0 0.00 0.00 0.00
20260901074553 70 266 8.0 11.0 0.00 0.00 0.00
20260901074151 70 255 10.0 14.0 0.00 0.00 0.00
20260901073749 69 270 10.0 15.0 0.00 0.00 0.00
20260901073347 69 274 9.0 12.0 0.00 0.00 0.00
20260901072946 69 268 9.0 13.0 0.00 0.00 0.00
20260901072545 70 262 6.0 14.0 0.00 0.00 0.00
20260901072142 70 244 6.0 13.0 0.00 0.00 0.00
20260901071735 69 229 11.0 17.0 0.00 0.00 0.00
20260901071333 70 237 9.0 12.0 0.00 0.00 0.00
20260901070931 69 252 9.0 13.0 0.00 0.00 0.00
20260901070531 70 241 9.0 12.0 0.00 0.00 0.00
20260901070128 69 229 8.0 13.0 0.00 0.00 0.00
20260901065726 70 231 9.0 12.0 0.00 0.00 0.00
20260901065324 71 239 6.0 9.0 0.00 0.00 0.00
20260901064922 71 248 6.0 8.0 0.00 0.00 0.00
20260901064520 71 264 7.0 11.0 0.00 0.00 0.00
20260901064119 71 246 8.0 12.0 0.00 0.00 0.00
20260901063711 70 240 10.0 14.0 0.00 0.00 0.00
20260901063309 69 244 9.0 12.0 0.00 0.00 0.00
20260901062907 69 254 8.0 15.0 0.00 0.00 0.00
20260901062506 69 236 8.0 12.0 0.00 0.00 0.00
20260901062104 69 245 9.0 14.0 0.00 0.00 0.00
20260901061703 69 238 9.0 14.0 0.00 0.00 0.00
20260901061300 69 249 8.0 13.0 0.00 0.00 0.00
20260901060859 69 257 11.0 17.0 0.00 0.00 0.00
20260901060458 70 246 7.0 11.0 0.00 0.00 0.00
20260901060056 70 253 5.0 9.0 0.00 0.00 0.00
20260901055648 69 250 8.0 11.0 0.00 0.00 0.00
20260901055245 69 249 9.0 13.0 0.00 0.00 0.00
20260901054844 69 248 9.0 14.0 0.00 0.00 0.00
20260901054443 69 251 6.0 10.0 0.00 0.00 0.00
20260901054041 69 247 6.0 10.0 0.00 0.00 0.00
20260901053639 69 232 8.0 13.0 0.00 0.00 0.00
20260901053237 69 254 8.0 11.0 0.00 0.00 0.00
20260901052836 70 243 5.0 9.0 0.00 0.00 0.00
20260901052435 70 237 5.0 10.0 0.00 0.00 0.00
20260901052032 69 234 5.0 8.0 0.00 0.00 0.00
20260901051624 69 234 4.0 7.0 0.00 0.00 0.00
20260901051223 70 239 4.0 6.0 0.00 0.00 0.00
20260901050822 69 250 4.0 6.0 0.00 0.00 0.00
20260901050419 69 253 6.0 10.0 0.00 0.00 0.00
20260901050018 70 240 4.0 8.0 0.00 0.00 0.00
20260901045617 70 239 5.0 8.0 0.00 0.00 0.00
20260901045215 70 223 3.0 5.0 0.00 0.00 0.00
20260901044814 69 222 6.0 9.0 0.00 0.00 0.00
20260901044412 69 218 4.0 7.0 0.00 0.00 0.00
20260901044010 68 220 5.0 9.0 0.00 0.00 0.00
20260901043602 68 222 5.0 9.0 0.00 0.00 0.00
20260901043200 68 216 6.0 11.0 0.00 0.00 0.00
20260901042758 68 215 6.0 10.0 0.00 0.00 0.00
20260901042357 68 222 5.0 8.0 0.00 0.00 0.00
20260901041955 68 222 5.0 9.0 0.00 0.00 0.00
20260901041554 69 220 4.0 7.0 0.00 0.00 0.00
20260901041151 68 218 4.0 8.0 0.00 0.00 0.00
20260901040750 68 219 6.0 11.0 0.00 0.00 0.00
20260901040349 68 220 5.0 8.0 0.00 0.00 0.00
20260901035947 68 217 4.0 8.0 0.00 0.00 0.00
20260901035538 69 225 5.0 7.0 0.00 0.00 0.00
20260901035136 69 221 5.0 9.0 0.00 0.00 0.00
20260901034735 68 216 5.0 9.0 0.00 0.00 0.00
20260901034334 68 222 6.0 10.0 0.00 0.00 0.00
20260901033531 68 216 6.0 11.0 0.00 0.00 0.00
20260901033129 68 206 7.0 10.0 0.00 0.00 0.00
20260901032728 69 208 7.0 11.0 0.00 0.00 0.00
20260901032327 69 209 6.0 10.0 0.00 0.00 0.00
20260901031924 68 213 5.0 8.0 0.00 0.00 0.00
20260901031516 68 203 5.0 9.0 0.00 0.00 0.00
20260901031114 68 202 5.0 8.0 0.00 0.00 0.00
20260901030713 68 202 4.0 7.0 0.00 0.00 0.00
20260901030311 65 202 3.0 4.0 0.00 0.00 0.00
20260901025909 66 202 3.0 5.0 0.00 0.00 0.00
20260901025508 66 202 3.0 4.0 0.00 0.00 0.00
20260901025106 67 202 2.0 3.0 0.00 0.00 0.00
20260901024704 68 202 2.0 4.0 0.00 0.00 0.00
20260901024303 66 202 3.0 5.0 0.00 0.00 0.00
20260901023901 64 202 2.0 2.0 0.00 0.00 0.00
20260901023453 65 202 1.0 2.0 0.00 0.00 0.00
20260901023051 66 202 2.0 3.0 0.00 0.00 0.00
20260901022649 67 202 2.0 2.0 0.00 0.00 0.00
20260901022248 67 202 1.0 2.0 0.00 0.00 0.00
20260901021846 68 202 2.0 3.0 0.00 0.00 0.00
20260901021445 69 204 2.0 3.0 0.00 0.00 0.00
20260901021042 70 202 2.0 4.0 0.00 0.00 0.00
20260901020641 68 202 2.0 3.0 0.00 0.00 0.00
20260901020240 66 202 1.0 2.0 0.00 0.00 0.00
20260901015839 67 202 2.0 3.0 0.00 0.00 0.00
20260901015429 70 202 3.0 4.0 0.00 0.00 0.00
20260901015028 70 202 3.0 5.0 0.00 0.00 0.00
20260901014627 70 202 4.0 5.0 0.00 0.00 0.00
20260901014226 71 206 4.0 6.0 0.00 0.00 0.00
20260901013823 71 225 4.0 7.0 0.00 0.00 0.00
20260901013422 71 234 4.0 6.0 0.00 0.00 0.00
20260901013020 71 225 4.0 6.0 0.00 0.00 0.00
20260901012619 71 228 4.0 5.0 0.00 0.00 0.00
20260901012218 70 227 4.0 7.0 0.00 0.00 0.00
20260901011815 70 225 3.0 4.0 0.00 0.00 0.00
20260901011406 71 223 3.0 6.0 0.00 0.00 0.00
20260901011005 71 218 4.0 7.0 0.00 0.00 0.00
20260901010604 71 182 3.0 5.0 0.00 0.00 0.00
20260901010201 70 202 3.0 4.0 0.00 0.00 0.00
20260901005800 71 195 4.0 7.0 0.00 0.00 0.00
20260901005359 71 202 5.0 6.0 0.00 0.00 0.00
20260901004957 71 202 4.0 6.0 0.00 0.00 0.00
20260901004555 71 202 4.0 6.0 0.00 0.00 0.00
20260901004154 70 187 4.0 6.0 0.00 0.00 0.00
20260901003758 69 186 3.0 5.0 0.00 0.00 0.00
20260901003752 69 186 3.0 5.0 0.00 0.00 0.00
20260901003344 69 180 3.0 4.0 0.00 0.00 0.00
20260901002941 69 180 3.0 5.0 0.00 0.00 0.00
20260901002540 70 180 3.0 5.0 0.00 0.00 0.00
20260901002139 70 180 3.0 5.0 0.00 0.00 0.00
20260901001737 69 180 3.0 4.0 0.00 0.00 0.00
20260901001336 68 180 2.0 4.0 0.00 0.00 0.00
20260901000933 69 193 2.0 4.0 0.00 0.00 0.00
20260901000532 69 180 2.0 4.0 0.00 0.00 0.00
20260901000131 69 169 4.0 5.0 0.00 0.00 0.00
20260831235729 69 157 3.0 5.0 0.00 0.00 0.00
20260831235320 70 180 4.0 6.0 0.00 0.00 0.00
20260831234918 69 180 3.0 5.0 0.00 0.00 0.00
20260831234517 69 202 3.0 4.0 0.00 0.00 0.00
20260831234115 69 202 3.0 4.0 0.00 0.00 0.00
20260831233712 70 202 2.0 5.0 0.00 0.00 0.00
20260831233311 71 202 3.0 6.0 0.00 0.00 0.00
20260831232908 71 202 3.0 5.0 0.00 0.00 0.00
20260831232507 71 202 3.0 4.0 0.00 0.00 0.00
20260831232105 70 202 3.0 5.0 0.00 0.00 0.00
20260831231703 69 201 3.0 4.0 0.00 0.00 0.00
20260831231255 68 180 2.0 3.0 0.00 0.00 0.00
20260831230854 68 202 2.0 3.0 0.00 0.00 0.00
20260831230453 68 202 3.0 4.0 0.00 0.00 0.00
20260831230050 68 225 3.0 4.0 0.00 0.00 0.00
20260831225649 69 225 2.0 4.0 0.00 0.00 0.00
20260831225247 70 225 1.0 3.0 0.00 0.00 0.00
20260831224845 71 225 2.0 4.0 0.00 0.00 0.00
20260831224443 69 202 2.0 3.0 0.00 0.00 0.00
20260831224042 70 202 1.0 2.0 0.00 0.00 0.00
20260831223640 67 202 0.0 0.0 0.00 0.00 0.00
20260831223232 67 202 0.0 0.0 0.00 0.00 0.00
20260831222829 67 202 0.0 0.0 0.00 0.00 0.00
20260831222428 67 202 0.0 0.0 0.00 0.00 0.00
20260831222027 67 202 0.0 0.0 0.00 0.00 0.00
20260831221626 67 202 0.0 0.0 0.00 0.00 0.00
20260831221223 68 202 0.0 0.0 0.00 0.00 0.00
20260831220822 68 202 0.0 0.0 0.00 0.00 0.00
20260831220421 68 202 0.0 0.0 0.00 0.00 0.00
20260831220020 68 202 0.0 0.0 0.00 0.00 0.00
20260831215618 69 202 0.0 1.0 0.00 0.00 0.00
20260831215209 70 202 1.0 2.0 0.00 0.00 0.00
20260831214807 70 202 0.0 2.0 0.00 0.00 0.00
20260831214406 70 202 2.0 4.0 0.00 0.00 0.00
20260831214005 69 202 2.0 3.0 0.00 0.00 0.00
20260831213602 69 202 0.0 0.0 0.00 0.00 0.00
20260831213201 68 202 0.0 2.0 0.00 0.00 0.00
20260831212759 69 202 2.0 2.0 0.00 0.00 0.00
20260831212358 69 202 1.0 3.0 0.00 0.00 0.00
20260831211956 69 202 1.0 2.0 0.00 0.00 0.00
20260831211554 70 202 2.0 2.0 0.00 0.00 0.00
20260831211146 70 272 1.0 3.0 0.00 0.00 0.00
20260831210744 70 338 0.0 1.0 0.00 0.00 0.00
20260831210342 69 338 0.0 1.0 0.00 0.00 0.00
20260831205941 69 338 0.0 0.0 0.00 0.00 0.00
20260831205539 70 338 0.0 1.0 0.00 0.00 0.00
20260831205138 69 338 0.0 0.0 0.00 0.00 0.00
20260831204736 69 338 0.0 0.0 0.00 0.00 0.00
20260831204334 69 338 0.0 0.0 0.00 0.00 0.00
20260831203933 70 338 0.0 0.0 0.00 0.00 0.00
20260831203531 71 338 0.0 0.0 0.00 0.00 0.00
20260831203123 71 338 0.0 0.0 0.00 0.00 0.00
20260831202720 70 338 0.0 1.0 0.00 0.00 0.00
20260831202319 70 338 0.0 1.0 0.00 0.00 0.00
20260831201918 70 338 0.0 0.0 0.00 0.00 0.00
20260831201517 70 338 0.0 0.0 0.00 0.00 0.00
20260831201114 71 338 0.0 0.0 0.00 0.00 0.00
20260831200713 71 338 0.0 0.0 0.00 0.00 0.00
20260831200312 71 338 0.0 0.0 0.00 0.00 0.00
20260831195911 72 338 0.0 0.0 0.00 0.00 0.00
20260831195508 71 338 0.0 0.0 0.00 0.00 0.00
20260831195100 71 338 0.0 0.0 0.00 0.00 0.00
20260831194658 71 338 0.0 1.0 0.00 0.00 0.00
20260831194257 71 338 0.0 0.0 0.00 0.00 0.00
20260831193856 71 338 0.0 1.0 0.00 0.00 0.00
20260831193453 71 338 0.0 2.0 0.00 0.00 0.00
20260831193052 71 338 1.0 2.0 0.00 0.00 0.00
20260831192249 71 338 2.0 3.0 0.00 0.00 0.00
20260831191847 71 338 1.0 3.0 0.00 0.00 0.00
20260831191445 71 338 1.0 2.0 0.00 0.00 0.00
20260831191037 71 338 1.0 2.0 0.00 0.00 0.00
20260831190635 71 333 1.0 3.0 0.00 0.00 0.00
20260831190233 72 315 0.0 2.0 0.00 0.00 0.00
20260831185431 72 292 0.0 2.0 0.00 0.00 0.00
20260831185029 73 293 1.0 4.0 0.00 0.00 0.00
20260831184626 73 292 1.0 3.0 0.00 0.00 0.00
20260831184226 73 292 1.0 3.0 0.00 0.00 0.00
20260831183825 73 295 3.0 7.0 0.00 0.00 0.00
20260831183423 73 292 2.0 5.0 0.00 0.00 0.00
20260831183015 73 292 2.0 6.0 0.00 0.00 0.00
20260831182612 73 288 3.0 6.0 0.00 0.00 0.00
20260831182211 73 292 1.0 3.0 0.00 0.00 0.00
20260831181810 73 292 2.0 3.0 0.00 0.00 0.00
20260831181408 73 292 2.0 4.0 0.00 0.00 0.00
20260831181006 73 292 2.0 3.0 0.00 0.00 0.00
20260831180604 74 270 2.0 2.0 0.00 0.00 0.00
20260831180203 74 270 2.0 2.0 0.00 0.00 0.00
20260831175802 74 270 2.0 3.0 0.00 0.00 0.00
20260831175359 74 270 2.0 3.0 0.00 0.00 0.00
20260831174951 75 270 2.0 3.0 0.00 0.00 0.00
20260831174549 74 270 3.0 5.0 0.00 0.00 0.00
20260831174148 75 270 4.0 5.0 0.00 0.00 0.00
20260831173746 75 270 4.0 6.0 0.00 0.00 0.00
20260831173344 75 270 3.0 6.0 0.00 0.00 0.00
20260831172943 75 270 3.0 4.0 0.00 0.00 0.00
20260831172542 75 270 3.0 6.0 0.00 0.00 0.00
20260831172140 76 270 4.0 5.0 0.00 0.00 0.00
20260831171738 76 272 4.0 6.0 0.00 0.00 0.00
20260831171336 76 269 5.0 7.0 0.00 0.00 0.00
20260831170928 76 272 4.0 6.0 0.00 0.00 0.00
20260831170527 77 265 6.0 9.0 0.00 0.00 0.00
20260831170124 77 256 4.0 7.0 0.00 0.00 0.00
20260831165724 78 244 5.0 8.0 0.00 0.00 0.00
20260831165322 79 254 5.0 10.0 0.00 0.00 0.00
20260831164921 82 262 3.0 7.0 0.00 0.00 0.00
20260831164518 82 249 3.0 5.0 0.00 0.00 0.00
20260831164117 82 248 4.0 8.0 0.00 0.00 0.00
20260831163716 83 268 3.0 6.0 0.00 0.00 0.00
20260831163314 82 256 5.0 8.0 0.00 0.00 0.00
20260831162905 82 254 5.0 9.0 0.00 0.00 0.00
20260831162502 81 261 5.0 8.0 0.00 0.00 0.00
20260831162101 77 266 4.0 7.0 0.00 0.00 0.00
20260831161700 78 254 5.0 7.0 0.00 0.00 0.00
20260831161258 79 255 4.0 6.0 0.00 0.00 0.00
20260831160856 78 252 5.0 8.0 0.00 0.00 0.00
20260831160453 78 265 4.0 6.0 0.00 0.00 0.00
20260831160052 78 255 5.0 7.0 0.00 0.00 0.00
20260831155651 78 265 4.0 6.0 0.00 0.00 0.00
20260831155248 78 258 7.0 9.0 0.00 0.00 0.00
20260831154840 78 255 5.0 8.0 0.00 0.00 0.00
20260831154438 78 259 6.0 12.0 0.00 0.00 0.00
20260831154037 78 261 5.0 8.0 0.00 0.00 0.00
20260831153635 79 236 5.0 12.0 0.00 0.00 0.00
20260831153233 79 258 9.0 12.0 0.00 0.00 0.00
20260831152832 79 259 9.0 12.0 0.00 0.00 0.00
20260831152430 79 255 9.0 13.0 0.00 0.00 0.00
20260831152028 80 272 6.0 10.0 0.00 0.00 0.00
20260831151627 79 232 8.0 11.0 0.00 0.00 0.00
20260831151225 79 236 7.0 13.0 0.00 0.00 0.00
20260831150818 78 235 10.0 14.0 0.00 0.00 0.00
20260831150416 78 230 8.0 10.0 0.00 0.00 0.00
20260831150014 78 243 8.0 12.0 0.00 0.00 0.00
20260831145613 78 260 9.0 11.0 0.00 0.00 0.00
20260831145211 78 263 10.0 13.0 0.00 0.00 0.00
20260831144810 78 263 10.0 15.0 0.00 0.00 0.00
20260831144506 78 269 6.0 9.0 0.00 0.00 0.00
20260831144407 77 254 11.0 17.0 0.00 0.00 0.00
20260831144005 78 263 9.0 15.0 0.00 0.00 0.00
20260831143604 78 269 6.0 9.0 0.00 0.00 0.00
20260831143310 78 243 9.0 12.0 0.00 0.00 0.00
20260831143202 78 243 9.0 12.0 0.00 0.00 0.00
20260831142753 78 236 9.0 14.0 0.00 0.00 0.00
20260831142351 79 235 9.0 14.0 0.00 0.00 0.00
20260831141950 78 244 8.0 10.0 0.00 0.00 0.00
20260831141549 79 254 7.0 10.0 0.00 0.00 0.00
20260831141146 79 231 9.0 12.0 0.00 0.00 0.00
20260831140343 78 251 8.0 14.0 0.00 0.00 0.00
20260831135942 77 255 9.0 14.0 0.00 0.00 0.00
20260831135541 77 260 9.0 14.0 0.00 0.00 0.00
20260831135138 77 251 9.0 12.0 0.00 0.00 0.00
20260831134730 78 252 9.0 14.0 0.00 0.00 0.00
20260831134328 79 247 8.0 13.0 0.00 0.00 0.00
20260831133928 78 250 10.0 13.0 0.00 0.00 0.00
20260831133525 78 259 9.0 17.0 0.00 0.00 0.00
20260831133124 77 258 9.0 14.0 0.00 0.00 0.00
20260831132723 77 256 8.0 12.0 0.00 0.00 0.00
20260831132321 77 245 10.0 14.0 0.00 0.00 0.00
20260831131919 76 255 9.0 16.0 0.00 0.00 0.00
20260831131518 77 254 7.0 11.0 0.00 0.00 0.00
20260831131116 77 261 8.0 11.0 0.00 0.00 0.00
20260831130708 76 271 10.0 15.0 0.00 0.00 0.00
20260831130305 76 267 9.0 13.0 0.00 0.00 0.00
20260831125903 76 264 8.0 12.0 0.00 0.00 0.00
20260831125502 76 272 11.0 17.0 0.00 0.00 0.00
20260831125100 76 268 8.0 14.0 0.00 0.00 0.00
20260831124659 75 269 7.0 11.0 0.00 0.00 0.00
20260831124256 75 277 12.0 18.0 0.00 0.00 0.00
20260831123856 76 272 12.0 19.0 0.00 0.00 0.00
20260831123454 78 278 7.0 17.0 0.00 0.00 0.00
20260831123053 78 274 10.0 14.0 0.00 0.00 0.00
20260831123006 78 274 10.0 14.0 0.00 0.00 0.00
20260831122643 78 274 10.0 14.0 0.00 0.00 0.00
20260831122242 79 269 8.0 10.0 0.00 0.00 0.00
20260831121841 79 277 9.0 12.0 0.00 0.00 0.00
20260831121440 79 272 11.0 18.0 0.00 0.00 0.00
20260831121037 80 284 9.0 12.0 0.00 0.00 0.00
20260831120636 80 294 11.0 18.0 0.00 0.00 0.00
20260831120233 81 260 9.0 17.0 0.00 0.00 0.00
20260831115832 81 257 8.0 12.0 0.00 0.00 0.00
20260831115430 81 246 8.0 10.0 0.00 0.00 0.00
20260831115028 81 271 8.0 14.0 0.00 0.00 0.00
20260831114620 81 248 7.0 9.0 0.00 0.00 0.00
20260831114217 82 267 4.0 6.0 0.00 0.00 0.00
20260831113817 81 260 5.0 7.0 0.00 0.00 0.00
20260831113414 82 306 3.0 5.0 0.00 0.00 0.00
20260831113012 81 299 3.0 5.0 0.00 0.00 0.00
20260831112612 81 344 3.0 5.0 0.00 0.00 0.00
20260831112210 81 315 2.0 4.0 0.00 0.00 0.00
20260831111808 81 305 3.0 5.0 0.00 0.00 0.00
20260831111407 80 308 5.0 7.0 0.00 0.00 0.00
20260831111004 81 333 3.0 6.0 0.00 0.00 0.00
20260831110556 80 321 4.0 6.0 0.00 0.00 0.00
20260831110153 81 326 4.0 6.0 0.00 0.00 0.00
20260831105752 82 157 3.0 5.0 0.00 0.00 0.00
20260831105352 83 157 1.0 2.0 0.00 0.00 0.00
20260831104950 82 157 3.0 4.0 0.00 0.00 0.00
20260831104548 82 157 2.0 3.0 0.00 0.00 0.00
20260831104146 82 157 4.0 6.0 0.00 0.00 0.00
20260831103820 82 157 4.0 7.0 0.00 0.00 0.00
20260831103745 82 157 4.0 7.0 0.00 0.00 0.00
20260831103344 82 157 5.0 7.0 0.00 0.00 0.00
20260831102533 81 195 6.0 8.0 0.00 0.00 0.00
20260831102131 81 197 6.0 9.0 0.00 0.00 0.00
20260831101730 81 205 5.0 9.0 0.00 0.00 0.00
20260831101329 81 207 4.0 8.0 0.00 0.00 0.00
20260831100926 81 194 8.0 13.0 0.00 0.00 0.00
20260831100525 82 174 5.0 10.0 0.00 0.00 0.00
20260831100123 81 196 5.0 9.0 0.00 0.00 0.00
20260831095722 82 157 2.0 4.0 0.00 0.00 0.00
20260831095320 82 135 0.0 2.0 0.00 0.00 0.00
20260831094918 81 135 3.0 5.0 0.00 0.00 0.00
20260831094510 82 135 3.0 4.0 0.00 0.00 0.00
20260831094108 82 135 2.0 4.0 0.00 0.00 0.00
20260831093706 81 135 3.0 7.0 0.00 0.00 0.00
20260831093305 81 135 3.0 6.0 0.00 0.00 0.00
20260831092502 81 135 6.0 10.0 0.00 0.00 0.00
20260831092100 81 130 4.0 6.0 0.00 0.00 0.00
20260831091658 82 135 5.0 8.0 0.00 0.00 0.00
20260831091257 82 132 5.0 7.0 0.00 0.00 0.00
20260831090855 82 135 4.0 7.0 0.00 0.00 0.00
20260831090447 82 132 5.0 8.0 0.00 0.00 0.00
20260831090044 82 132 5.0 8.0 0.00 0.00 0.00
20260831085643 82 140 5.0 8.0 0.00 0.00 0.00
20260831085242 82 144 5.0 9.0 0.00 0.00 0.00
20260831084840 83 137 4.0 8.0 0.00 0.00 0.00
20260831084438 82 138 5.0 10.0 0.00 0.00 0.00
20260831084036 82 136 5.0 8.0 0.00 0.00 0.00
20260831083635 81 142 7.0 12.0 0.00 0.00 0.00
20260831083234 81 131 5.0 9.0 0.00 0.00 0.00
20260831082831 81 135 5.0 10.0 0.00 0.00 0.00
20260831082423 81 135 5.0 6.0 0.00 0.00 0.00
20260831082021 80 135 4.0 7.0 0.00 0.00 0.00
20260831081620 80 131 4.0 8.0 0.00 0.00 0.00
20260831081219 80 135 4.0 7.0 0.00 0.00 0.00